Location: Unspecified
(0.0000°N, 0.0000°E)
Time: 11:57:04
(UTC+00:00)

Tiros 1 - All Passes

Search period start: 21 October 2014 00:00
Search period end: 31 October 2014 00:00
Orbit: 633 x 667 km, 48.4° (Epoch: 20 October)

Date Brightness Start Highest point End Pass type
(mag) Time Alt. Az. Time Alt. Az. Time Alt. Az.
21 Oct - 08:19:32 10° NW 08:24:18 88° SW 08:29:08 10° SE daylight
21 Oct - 18:53:28 10° SSE 18:55:48 14° SE 18:58:07 10° E visible
21 Oct - 20:33:29 10° SW 20:37:56 45° NW 20:42:21 10° NNE visible
22 Oct - 07:05:19 10° N 07:09:13 25° NE 07:13:09 10° ESE daylight
22 Oct - 08:47:21 10° WNW 08:51:19 26° SW 08:55:19 10° S daylight
22 Oct - 19:18:24 10° SSW 19:22:52 45° SE 19:27:17 10° ENE visible
22 Oct - 21:02:38 10° W 21:04:58 14° NW 21:07:17 10° NNW visible
23 Oct - 07:31:26 10° NW 07:36:12 86° NE 07:41:01 10° SE daylight
23 Oct - 18:05:40 10° SSE 18:07:42 13° SE 18:09:43 10° ESE visible
23 Oct - 19:45:20 10° SW 19:49:51 49° NW 19:54:18 10° NNE visible
24 Oct - 06:17:20 10° N 06:21:06 23° NE 06:24:53 10° ESE daylight
24 Oct - 07:59:08 10° WNW 08:03:12 28° SW 08:07:18 10° S daylight
24 Oct - 18:30:21 10° SSW 18:34:46 41° SE 18:39:08 10° ENE visible
24 Oct - 20:14:14 10° W 20:16:51 15° NW 20:19:28 10° NNW visible
25 Oct - 06:43:21 10° NW 06:48:05 79° NE 06:52:53 10° SE daylight
25 Oct - 17:17:56 10° SSE 17:19:35 12° SE 17:21:13 10° ESE daylight
25 Oct - 18:57:10 10° SW 19:01:45 54° NW 19:06:15 10° NNE visible
26 Oct - 05:29:22 10° N 05:32:59 22° NE 05:36:37 10° E daylight
26 Oct - 07:10:55 10° WNW 07:15:04 30° SW 07:19:16 10° S daylight
26 Oct - 17:42:17 10° SSW 17:46:40 38° SE 17:50:58 10° ENE daylight
26 Oct - 19:25:52 10° W 19:28:45 16° NW 19:31:36 10° NNW visible
27 Oct - 05:55:15 10° NNW 05:59:58 73° NE 06:04:44 10° SE daylight
27 Oct - 16:30:20 10° SE 16:31:27 11° SE 16:32:34 10° ESE daylight
27 Oct - 18:09:01 10° SW 18:13:38 59° NW 18:18:11 10° NNE visible
28 Oct - 04:41:25 10° N 04:44:51 20° NE 04:48:18 10° E visible
28 Oct - 06:22:43 10° WNW 06:26:57 32° SW 06:31:13 10° SSE daylight
28 Oct - 16:54:14 10° SSW 16:58:32 35° SE 17:02:47 10° ENE daylight
28 Oct - 18:37:31 10° W 18:40:37 17° NW 18:43:42 10° N visible
29 Oct - 05:07:09 10° NNW 05:11:50 67° NE 05:16:34 10° SE visible
29 Oct - 17:20:51 10° SW 17:25:30 64° NW 17:30:07 10° NNE daylight
30 Oct - 03:53:28 10° N 03:56:43 18° NE 03:59:58 10° E visible
30 Oct - 05:34:31 10° WNW 05:38:48 35° SW 05:43:09 10° SSE daylight
30 Oct - 16:06:10 10° SSW 16:10:24 33° SE 16:14:36 10° ENE daylight
30 Oct - 17:49:11 10° W 17:52:29 19° NW 17:55:46 10° N daylight
